, TX

(GMT )
Ingleside

Weather History for KTFP - October, 2013

Change the Weather History Date:

Tuesday, October 15, 2013

  Actual Average Record
Temperature  
Mean Temperature 82 °F -  
Max Temperature 88 °F - - ()
Min Temperature 77 °F - - ()
Cooling Degree Days 18    
Growing Degree Days 32 (Base 50)    
Moisture  
Dew Point 72 °F    
Average Humidity 73    
Maximum Humidity 90    
Minimum Humidity 57    
Precipitation  
Precipitation 0.00 in - - ()
Sea Level Pressure  
Sea Level Pressure 29.92 in    
Wind  
Wind Speed 8 mph (SSE)    
Max Wind Speed 16 mph    
Max Gust Speed 20 mph    
Visibility 10 miles    
Events      
T = Trace of Precipitation, MM = Missing Value Source: NWS Daily Summary

Daily Weather History Graph

Daily Weather History Graph

Search for Another Location

Airport or City:

Trip Planner

Search our weather history database for the weather conditions in past years. The results will help you decide how hot, cold, wet, or windy it might be!

Date:

Astronomy

Oct. 15, 2013 Rise Set
Actual Time 7:29 AM CDT 6:59 PM CDT
Civil Twilight 7:05 AM CDT 7:22 PM CDT
Nautical Twilight 6:38 AM CDT 7:50 PM CDT
Astronomical Twilight 6:11 AM CDT 8:17 PM CDT
Moon 4:51 PM CDT (10/15) 4:09 AM CDT (10/15)
Length of Visible Light 12h 17m
Length of Day
11h 30m
Waxing Gibbous, 88% of the Moon is Illuminated
Oct 15
Waxing Gibbous
Oct 18
Full
Oct 26
Last Quarter
Nov 3
New
Nov 9
First Quarter

Hourly Weather History & Observations

Time (CDT) Temp. Heat Index Dew Point Humidity Pressure Visibility Wind Dir Wind Speed Gust Speed Precip Events Conditions
12:15 AM 79.9 °F - 71.6 °F 76% 29.95 in 10.0 mi SSE 9.2 mph - N/A   Clear
12:35 AM 79.7 °F - 71.4 °F 76% 29.96 in 10.0 mi SSE 9.2 mph - N/A   Clear
12:55 AM 79.9 °F - 71.2 °F 75% 29.96 in 10.0 mi SSE 8.1 mph - N/A   Clear
1:15 AM 79.3 °F - 71.4 °F 77% 29.96 in 10.0 mi SSE 5.8 mph - N/A   Clear
1:35 AM 78.8 °F - 71.8 °F 79% 29.95 in 10.0 mi SSE 6.9 mph - N/A   Clear
1:55 AM 78.3 °F - 72.3 °F 82% 29.95 in 10.0 mi South 5.8 mph - N/A   Clear
2:15 AM 78.3 °F - 72.7 °F 83% 29.95 in 10.0 mi South 5.8 mph - N/A   Clear
2:35 AM 78.3 °F - 72.7 °F 83% 29.95 in 10.0 mi South 4.6 mph - N/A   Clear
2:55 AM 78.3 °F - 72.9 °F 83% 29.95 in 10.0 mi SSE 6.9 mph - N/A   Clear
3:15 AM 77.9 °F - 74.1 °F 88% 29.94 in 10.0 mi South 5.8 mph - N/A   Clear
3:35 AM 77.9 °F - 74.5 °F 89% 29.94 in 10.0 mi South 3.5 mph - N/A   Scattered Clouds
3:55 AM 77.7 °F - 74.5 °F 90% 29.93 in 10.0 mi SSE 5.8 mph - N/A   Clear
4:15 AM 77.7 °F - 74.5 °F 90% 29.93 in 10.0 mi SSE 5.8 mph - N/A   Clear
4:35 AM 78.1 °F - 74.5 °F 89% 29.92 in 10.0 mi South 8.1 mph - N/A   Clear
4:55 AM 78.3 °F - 73.8 °F 86% 29.92 in 10.0 mi SSE 8.1 mph - N/A   Clear
5:15 AM 78.8 °F - 72.9 °F 82% 29.92 in 10.0 mi South 5.8 mph - N/A   Clear
5:35 AM 78.8 °F - 73.6 °F 84% 29.92 in 10.0 mi SSE 6.9 mph - N/A   Scattered Clouds
5:55 AM 79.0 °F - 73.4 °F 83% 29.92 in 10.0 mi SSE 8.1 mph - N/A   Scattered Clouds
6:15 AM 79.7 °F - 72.7 °F 79% 29.92 in 10.0 mi SSE 8.1 mph - N/A   Mostly Cloudy
6:35 AM 79.7 °F - 72.7 °F 79% 29.92 in 10.0 mi SSE 9.2 mph - N/A   Scattered Clouds
6:55 AM 79.7 °F - 72.5 °F 79% 29.93 in 10.0 mi SSE 8.1 mph - N/A   Mostly Cloudy
7:15 AM 79.7 °F - 72.0 °F 77% 29.93 in 10.0 mi SSE 6.9 mph - N/A   Scattered Clouds
7:35 AM 78.8 °F - 72.0 °F 79% 29.94 in 10.0 mi SSE 4.6 mph - N/A   Clear
7:55 AM 78.4 °F - 72.1 °F 81% 29.94 in 10.0 mi South 4.6 mph - N/A   Clear
8:15 AM 79.3 °F - 72.3 °F 79% 29.95 in 10.0 mi South 4.6 mph - N/A   Clear
8:35 AM 81.0 °F 85.4 °F 72.5 °F 75% 29.96 in 10.0 mi SSE 5.8 mph - N/A   Clear
8:55 AM 82.4 °F 87.4 °F 72.3 °F 71% 29.96 in 10.0 mi SSE 8.1 mph - N/A   Clear
9:15 AM 83.7 °F 89.2 °F 72.0 °F 68% 29.96 in 10.0 mi SSE 11.5 mph - N/A   Clear
9:35 AM 84.2 °F 89.6 °F 71.8 °F 66% 29.96 in 10.0 mi SSE 11.5 mph - N/A   Clear
9:55 AM 84.9 °F 90.7 °F 72.0 °F 65% 29.96 in 10.0 mi SSE 12.7 mph 17.3 mph N/A   Clear
10:15 AM 85.3 °F 91.1 °F 71.8 °F 64% 29.96 in 10.0 mi SSE 12.7 mph 19.6 mph N/A   Clear
10:35 AM 85.6 °F 91.5 °F 72.0 °F 63% 29.96 in 10.0 mi SSE 15.0 mph 18.4 mph N/A   Scattered Clouds
10:55 AM 86.2 °F 92.2 °F 71.6 °F 62% 29.95 in 10.0 mi SSE 16.1 mph - N/A   Scattered Clouds
11:15 AM 86.2 °F 92.2 °F 71.6 °F 62% 29.96 in 10.0 mi SE 12.7 mph 16.1 mph N/A   Scattered Clouds
11:35 AM 86.7 °F 92.9 °F 71.8 °F 61% 29.96 in 10.0 mi South 11.5 mph - N/A   Scattered Clouds
11:55 AM 86.5 °F 92.5 °F 71.6 °F 61% 29.96 in 10.0 mi SE 11.5 mph 17.3 mph N/A   Scattered Clouds
12:15 PM 86.4 °F 92.6 °F 71.8 °F 62% 29.95 in 10.0 mi SSE 11.5 mph - N/A   Scattered Clouds
12:35 PM 87.4 °F 93.5 °F 71.6 °F 59% 29.94 in 10.0 mi SSE 12.7 mph 16.1 mph N/A   Scattered Clouds
12:55 PM 87.4 °F 93.1 °F 71.2 °F 58% 29.94 in 10.0 mi South 9.2 mph 16.1 mph N/A   Scattered Clouds
1:15 PM 87.6 °F 93.9 °F 71.8 °F 59% 29.93 in 10.0 mi SSE 10.4 mph - N/A   Scattered Clouds
1:35 PM 88.0 °F 93.8 °F 71.2 °F 57% 29.92 in 10.0 mi SSE 12.7 mph - N/A   Clear
1:55 PM 87.6 °F 93.5 °F 71.4 °F 58% 29.91 in 10.0 mi SSE 13.8 mph - N/A   Clear
2:15 PM 87.8 °F 93.8 °F 71.4 °F 58% 29.90 in 10.0 mi SSE 11.5 mph 18.4 mph N/A   Clear
2:35 PM 87.8 °F 93.4 °F 70.9 °F 57% 29.89 in 10.0 mi SSE 12.7 mph 19.6 mph N/A   Scattered Clouds
2:55 PM 87.3 °F 92.4 °F 70.2 °F 57% 29.88 in 10.0 mi SSE 11.5 mph - N/A   Clear
3:15 PM 87.4 °F 93.1 °F 71.2 °F 58% 29.88 in 10.0 mi South 11.5 mph 19.6 mph N/A   Clear
3:35 PM 87.1 °F 92.8 °F 71.2 °F 59% 29.88 in 10.0 mi SSE 11.5 mph 17.3 mph N/A   Scattered Clouds
3:55 PM 87.1 °F 92.8 °F 71.2 °F 59% 29.87 in 10.0 mi SE 9.2 mph 16.1 mph N/A   Clear
4:15 PM 86.9 °F 92.5 °F 71.2 °F 59% 29.87 in 10.0 mi SE 11.5 mph - N/A   Scattered Clouds
4:35 PM 86.4 °F 91.8 °F 70.9 °F 60% 29.87 in 10.0 mi SSE 10.4 mph - N/A   Clear
4:55 PM 85.8 °F 91.1 °F 70.9 °F 61% 29.87 in 10.0 mi SSE 12.7 mph 16.1 mph N/A   Clear
5:15 PM 85.1 °F 90.1 °F 70.9 °F 62% 29.86 in 10.0 mi SE 15.0 mph - N/A   Clear
5:35 PM 84.4 °F 89.0 °F 70.7 °F 63% 29.86 in 10.0 mi SE 10.4 mph 17.3 mph N/A   Clear
5:55 PM 83.8 °F 88.6 °F 70.9 °F 65% 29.86 in 10.0 mi SE 9.2 mph - N/A   Clear
6:15 PM 82.9 °F 87.5 °F 71.1 °F 67% 29.86 in 10.0 mi SE 10.4 mph - N/A   Clear
6:35 PM 82.0 °F 86.5 °F 71.4 °F 70% 29.87 in 10.0 mi SE 9.2 mph - N/A   Clear
6:55 PM 81.0 °F 85.2 °F 71.8 °F 74% 29.87 in 10.0 mi SE 9.2 mph - N/A   Clear
7:15 PM 80.1 °F 83.8 °F 71.8 °F 76% 29.87 in 10.0 mi SE 8.1 mph - N/A   Clear
7:55 PM 79.7 °F - 72.1 °F 78% 29.88 in 10.0 mi SE 8.1 mph - N/A   Clear
8:15 PM 79.7 °F - 72.3 °F 78% 29.89 in 10.0 mi SE 6.9 mph - N/A   Clear
8:35 PM 79.3 °F - 72.3 °F 79% 29.89 in 10.0 mi SE 6.9 mph - N/A   Clear
8:55 PM 79.3 °F - 72.5 °F 79% 29.90 in 10.0 mi SE 8.1 mph - N/A   Clear
9:15 PM 79.2 °F - 72.5 °F 80% 29.90 in 10.0 mi SE 6.9 mph - N/A   Clear
9:35 PM 79.0 °F - 72.3 °F 80% 29.91 in 10.0 mi SE 8.1 mph - N/A   Clear
9:55 PM 79.3 °F - 72.3 °F 79% 29.91 in 10.0 mi SE 8.1 mph - N/A   Clear
10:15 PM 79.2 °F - 72.3 °F 79% 29.91 in 10.0 mi North - - N/A   Clear
10:35 PM 79.2 °F - 72.3 °F 79% 29.92 in 10.0 mi North - - N/A   Clear
10:55 PM 79.0 °F - 72.3 °F 80% 29.92 in 10.0 mi Calm Calm - N/A   Clear
11:15 PM 78.8 °F - 72.1 °F 80% 29.92 in 10.0 mi SSE 6.9 mph - N/A   Clear
11:35 PM 78.8 °F - 72.0 °F 79% 29.92 in 10.0 mi SSE 6.9 mph - N/A   Clear
11:55 PM 78.6 °F - 72.1 °F 80% 29.92 in 10.0 mi SSE 5.8 mph - N/A   Clear